Regional Weather Roundup
Issued by NWS

Home | Current Version | Previous Version | Text Only | Print | Product List | Glossary On
Versions: 1 2 3 4 5 6 7 8 9 10 11 12 13 14 15 16 17 18 19 20 21 22 23 24 25 26 27 28 29 30 31 32 33 34 35 36 37 38 39 40 41 42 43 44 45 46 47 48 49 50
000
ASUS43 KLMK 180210
RWRKY
KENTUCKY REGIONAL WEATHER ROUNDUP
NATIONAL WEATHER SERVICE LOUISVILLE KY
1000 PM EDT WED SEP 17 2014

NOTE "FAIR" INDICATES FEW OR NO CLOUDS BELOW 12,000 FEET
WITH NO SIGNIFICANT WEATHER AND/OR OBSTRUCTIONS TO VISIBILITY.

KYZ001>023-026-027-061>063-070>075-180300-
WESTERN AND SOUTH CENTRAL KENTUCKY

CITY           SKY/WX    TMP DP  RH WIND       PRES   REMARKS
PADUCAH        CLOUDY    67  60  78 CALM      29.96R
HENDERSON      CLOUDY    64  54  68 CALM      29.96S
OWENSBORO      PTCLDY    65  55  69 CALM      29.97S
HOPKINSVILLE   CLOUDY    66  58  77 S1        29.97S
BOWLING GREEN  CLOUDY    64  55  72 CALM      29.98R
GLASGOW        PTCLDY    59  56  92 CALM      29.98R
$$

KYZ024-025-028>034-038-045-046-053-180300-
NORTH CENTRAL KENTUCKY

CITY           SKY/WX    TMP DP  RH WIND       PRES   REMARKS
LOUISVILLE/SDF PTCLDY    62  53  72 N5        29.98R
LOUISVILLE/LOU PTCLDY    60  53  77 NW5       29.99R
FORT KNOX      CLOUDY    59  56  88 N3        29.97S
$$

KYZ035>037-039>044-047>052-055>060-089>105-180300-
NORTHEAST KENTUCKY

CITY           SKY/WX    TMP DP  RH WIND       PRES   REMARKS
LEXINGTON      CLEAR     59  53  80 CALM      29.99R
COVINGTON      PTCLDY    56  50  80 NW3       30.00R
FRANKFORT      CLEAR     56  53  90 CALM      29.97S
$$

KYZ054-064>069-076>088-106>120-180300-
SOUTHEAST KENTUCKY

CITY           SKY/WX    TMP DP  RH WIND       PRES   REMARKS
JACKSON        PTCLDY    61  53  75 CALM      30.00S
LONDON         CLEAR     60  55  83 CALM      29.98F
SOMERSET       NOT AVBL
MIDDLESBORO    CLEAR     58  56  94 CALM      30.00S
MONTICELLO     CLEAR     58  56  93 CALM      29.98F
$$




USA.gov is the U.S. government's official web portal to all federal, state and local government web resources and services.